Wind_Speed
10 10 9 9 8 5 3 5 9 13 14 11 10 10 10 9 9 9 9 8 8 8 8 9 8 8 8 8 9 9 9 9 10 10 10 10 9 9 8 8 8 7 7 6 6 5 5 5 4
11 10 10 9 8 5 4 10 12 14 13 11 11 11 12 12 12 11 11 9 9 9 9 10 10 10 10 11 10 10 11 11 11 11 11 11 11 10 10 9 9 8 8 7 7 6 6 6 5
11 11 10 10 8 6 9 13 14 14 14 13 12 12 13 13 12 12 11 10 10 10 10 10 12 12 12 12 12 12 12 13 13 12 12 12 12 12 11 11 10 10 9 8 8 8 7 7 7
12 12 11 10 8 8 11 13 15 14 15 13 13 13 13 13 13 12 11 11 11 11 11 12 13 13 14 14 14 14 14 14 14 14 14 13 13 13 12 12 11 11 10 10 9 9 9 8 8
13 13 12 9 8 10 13 15 15 14 16 13 14 13 12 12 12 12 12 12 12 13 13 13 14 14 15 15 15 16 15 15 15 15 15 15 14 14 13 13 13 12 12 11 11 11 10 10 10
14 13 11 9 9 14 17 17 15 16 15 13 14 13 14 13 13 13 13 14 14 14 14 16 16 15 15 16 17 17 16 17 17 17 16 16 16 15 15 14 14 14 13 13 13 12 11 11 11
15 13 10 8 12 16 18 17 16 15 15 15 15 14 15 14 12 13 14 15 15 15 15 16 17 17 17 17 18 18 18 18 18 19 18 18 17 17 16 16 16 15 15 15 14 14 13 13 13
15 14 12 11 14 17 20 17 16 16 16 16 15 15 14 13 13 14 14 15 15 16 16 16 17 18 19 19 19 20 20 19 20 20 19 19 18 18 17 17 17 17 16 16 15 15 15 14 14
15 13 12 12 13 17 20 17 16 17 17 17 17 16 14 14 15 15 15 16 16 17 18 18 17 18 19 19 19 19 20 20 20 20 20 21 20 19 18 18 18 18 18 17 17 17 16 16 16
15 13 13 15 16 18 19 17 17 17 18 18 18 16 15 14 15 16 16 17 17 18 19 18 18 18 18 18 19 20 20 21 21 21 21 21 22 21 19 18 18 18 18 18 18 18 18 17 17
16 16 18 19 20 20 19 18 16 16 16 17 17 15 15 16 17 17 17 17 18 19 20 19 19 19 18 18 19 20 20 21 21 21 21 21 21 21 21 19 19 19 19 18 18 19 19 19 19
17 19 20 20 22 20 19 17 18 18 15 16 17 17 17 17 17 17 17 18 19 20 20 20 21 21 20 19 19 21 22 22 22 21 20 21 21 20 21 20 20 20 19 19 19 19 19 20 20
19 18 19 19 19 19 18 18 16 16 16 17 17 18 17 17 18 18 18 19 20 20 21 21 21 21 21 21 21 21 22 23 22 20 20 21 21 20 20 21 22 21 21 21 21 21 21 21 22
17 17 18 18 17 17 17 17 16 17 17 18 17 18 18 18 19 19 19 20 20 20 21 21 21 21 21 21 22 22 21 22 23 22 21 21 21 20 20 21 22 21 21 22 22 23 22 22 23
15 15 15 16 16 16 16 17 17 17 17 17 18 19 18 19 20 20 20 20 20 20 21 21 22 22 22 22 23 23 22 22 22 22 23 23 23 22 22 22 22 22 23 24 24 24 24 23 23
12 13 13 13 14 15 15 16 17 16 16 17 18 19 18 19 20 20 20 20 20 20 21 22 22 22 23 23 23 23 23 23 24 24 25 24 24 24 24 24 24 24 24 24 25 25 25 25 25
9 9 10 12 13 13 14 16 16 16 16 17 18 19 19 20 21 20 20 19 19 20 21 22 23 23 23 23 23 24 24 24 24 24 25 25 25 25 25 25 25 25 26 26 26 26 26 26 25
8 10 12 14 13 12 13 16 16 18 17 18 19 20 19 20 21 21 20 19 19 20 21 22 23 23 22 23 23 23 23 23 24 24 25 26 26 26 26 26 27 27 27 27 28 28 27 27 27
10 11 13 13 15 14 14 18 18 19 19 19 21 21 20 21 22 22 21 20 20 21 21 22 22 22 23 22 22 23 23 24 24 24 25 26 27 27 27 28 28 29 29 27 28 28 27 27 27
13 13 14 14 17 16 16 19 18 21 21 21 21 21 20 21 22 22 21 21 21 21 22 22 23 24 24 24 24 24 25 25 25 26 26 27 27 27 28 29 30 29 30 29 28 28 28 28 28
13 13 14 16 17 16 17 19 19 20 21 21 21 21 20 21 21 21 22 22 22 23 23 24 24 25 25 25 25 26 27 27 27 27 27 27 26 27 28 30 31 31 31 30 31 30 30 30 30
11 12 15 16 17 17 17 19 19 21 21 19 20 20 21 21 22 22 22 22 22 22 23 24 25 25 26 25 26 27 28 28 28 28 29 29 29 29 30 31 31 32 32 32 32 32 31 31 31
12 14 16 16 17 18 19 19 21 22 22 19 19 20 21 22 23 23 23 23 22 23 24 24 24 25 25 25 26 27 28 30 30 30 30 29 30 31 31 31 32 32 31 32 32 32 32 31 31
14 15 16 16 17 20 19 21 21 21 20 20 19 19 20 23 21 22 23 23 23 23 24 24 25 24 25 26 26 28 29 30 30 30 29 30 30 31 31 31 32 32 31 32 33 33 32 31 31
12 12 13 15 17 19 18 20 21 20 19 20 21 20 20 21 20 21 23 23 24 25 25 25 25 25 26 27 27 28 29 29 29 29 29 29 29 29 29 30 30 31 31 32 32 32 31 31 32
12 13 15 16 18 18 17 19 19 18 20 22 22 23 22 20 21 22 23 23 24 24 24 25 26 26 26 27 28 29 29 28 27 26 26 27 27 27 28 29 29 30 30 30 31 31 31 30 30
10 12 14 16 17 17 16 16 17 18 21 22 23 23 21 20 21 21 23 23 24 24 25 25 25 26 26 26 27 27 27 27 26 25 25 24 25 26 26 27 27 28 28 28 28 28 28 28 28
12 13 14 15 15 16 13 15 16 18 19 20 21 22 22 21 21 21 22 23 23 23 24 25 25 25 25 25 26 26 26 26 25 24 24 24 25 25 25 25 25 25 25 25 26 27 27 27 27
12 13 13 14 15 15 17 19 20 19 19 20 20 21 21 22 22 22 23 24 24 24 24 25 24 25 25 25 25 25 25 24 24 24 23 24 24 24 25 24 24 23 23 24 24 24 24 25 25
13 14 15 17 17 18 19 21 21 21 22 22 22 23 22 23 23 23 23 24 24 24 23 24 24 23 23 23 24 24 23 24 24 23 23 23 23 22 22 22 22 22 22 22 22 22 22 22 23
Wind_Direction
230 227 218 208 193 175 153 229 235 244 242 238 239 244 250 248 255 266 278 283 283 279 280 279 272 266 264 264 263 263 263 262 261 264 265 265 263 262 262 262 263 265 268 275 277 277 280 284 289
225 224 214 202 190 152 207 233 240 249 247 245 244 248 254 257 263 268 275 280 281 280 278 277 276 273 270 268 266 265 265 264 264 263 264 264 263 263 263 262 263 264 268 270 272 273 277 278 280
219 217 210 198 186 177 214 236 246 249 253 252 250 249 254 262 265 269 273 278 282 277 272 275 276 274 273 268 265 266 266 265 264 262 261 261 261 262 262 262 264 264 267 269 270 271 273 273 275
216 211 207 202 190 207 221 238 239 248 256 256 257 255 259 261 267 273 277 278 277 278 278 279 279 275 272 269 267 265 266 263 263 262 261 260 261 262 263 263 264 265 266 268 270 271 271 272 272
216 213 206 200 197 219 233 236 240 248 257 257 257 255 260 261 267 273 279 278 276 279 281 286 285 282 276 271 270 268 266 264 263 263 261 261 262 263 264 264 265 265 266 269 270 269 269 272 274
212 210 206 205 216 228 233 242 252 249 251 255 257 261 264 266 270 274 279 280 279 282 283 286 285 283 277 273 271 268 267 266 265 264 262 262 262 263 264 264 266 267 268 268 268 265 268 270 272
214 209 204 210 231 236 240 244 249 244 250 255 254 259 264 271 270 277 282 286 288 287 286 288 286 279 276 273 271 267 266 267 265 263 262 261 261 262 264 263 264 265 266 268 266 266 268 270 272
215 209 206 211 231 241 248 249 247 246 252 251 254 264 267 272 278 283 286 291 293 289 290 289 285 280 276 274 272 269 267 267 266 261 260 260 260 262 264 264 265 265 264 264 264 264 266 268 270
212 212 210 210 228 241 251 252 249 247 250 251 261 265 267 275 282 282 286 289 293 293 295 293 287 283 280 278 272 269 267 268 266 261 260 259 260 261 263 265 265 265 263 263 263 264 265 267 269
210 206 207 209 219 237 247 252 253 251 250 260 263 263 271 279 282 284 287 291 293 295 295 293 289 285 282 279 274 269 267 269 267 264 265 262 260 259 262 263 265 264 263 263 263 265 266 267 269
207 209 210 215 220 231 242 248 248 249 249 257 265 271 274 277 282 285 289 292 293 294 294 293 290 288 286 282 276 273 268 269 266 265 268 268 263 261 262 263 265 265 265 264 264 267 267 268 270
207 216 219 224 231 233 239 244 247 250 254 261 265 270 267 274 282 285 287 291 293 293 292 292 290 289 288 287 283 281 275 271 271 268 268 269 267 266 264 264 266 267 267 267 266 267 268 269 270
218 223 229 233 237 241 244 245 250 257 262 260 265 270 274 280 282 284 286 288 290 291 292 292 289 289 287 285 285 283 278 272 270 272 270 270 270 271 269 269 269 268 268 266 265 266 266 268 270
227 229 236 239 241 245 244 252 255 259 259 259 267 272 275 280 280 281 284 287 289 289 288 289 288 287 286 285 283 282 279 277 275 271 270 272 273 273 272 271 271 271 270 268 266 267 269 271 270
226 231 239 244 247 247 254 256 259 261 260 263 269 271 277 279 278 279 282 285 286 287 287 287 287 286 285 284 284 283 280 278 278 274 273 275 275 275 276 276 274 273 273 272 271 272 272 274 273
227 232 240 248 254 253 257 262 262 262 263 266 271 273 274 276 275 277 280 282 283 285 287 287 287 286 286 285 285 283 280 279 279 276 274 276 275 276 274 275 275 276 275 274 273 273 273 274 274
222 232 236 248 256 258 262 259 259 266 266 269 271 270 270 274 276 277 279 278 281 283 285 284 286 286 285 285 284 284 281 281 281 279 277 278 277 276 275 275 276 277 276 274 273 273 274 274 275
220 229 233 242 253 260 261 260 264 267 270 271 274 273 274 276 276 278 280 281 283 284 285 285 286 286 286 286 285 284 283 283 283 280 279 278 277 276 274 274 276 276 277 276 274 273 273 274 275
216 232 231 236 252 255 256 260 260 268 276 276 280 277 276 277 277 277 278 281 284 286 287 287 288 288 288 288 287 286 285 284 285 283 281 280 278 276 274 275 276 276 277 276 274 274 274 274 275
212 225 227 236 250 257 260 263 270 276 279 280 279 279 276 274 276 279 281 283 284 285 287 287 288 288 287 286 287 288 288 286 285 284 283 282 279 276 275 274 275 275 276 276 275 276 275 275 275
210 217 227 237 252 260 256 263 272 276 275 277 277 274 273 274 274 276 279 282 283 284 285 287 288 286 286 287 288 288 288 287 286 285 284 282 280 278 276 275 275 275 275 276 276 275 275 275 275
215 224 230 238 249 259 263 262 270 272 274 276 278 275 276 276 278 279 279 281 283 285 286 288 287 286 286 288 288 287 288 288 286 286 285 283 282 281 280 278 276 276 276 276 275 274 275 275 274
217 222 233 241 246 253 260 266 266 270 275 276 280 280 281 279 280 279 279 280 282 285 287 290 288 287 288 290 289 288 289 289 288 288 286 285 284 284 283 280 278 278 277 276 276 275 275 275 274
223 231 241 244 247 255 258 263 269 276 277 276 278 279 282 285 280 279 281 282 283 285 286 288 290 288 289 290 290 290 292 290 289 289 286 285 285 285 284 283 280 279 277 277 276 274 273 273 273
234 238 247 250 250 253 255 257 264 273 277 280 285 288 289 285 284 283 283 283 284 285 286 288 290 290 289 289 290 293 295 293 292 290 288 287 285 285 286 285 283 282 280 278 276 274 273 272 272
240 240 249 260 262 261 250 250 257 269 278 286 291 292 292 290 290 289 289 288 286 287 287 287 289 290 290 291 292 294 295 295 294 292 291 289 287 288 289 286 285 284 283 281 277 273 271 272 273
247 247 253 261 271 276 274 267 265 273 281 287 292 294 292 291 291 290 289 289 288 287 288 289 290 291 291 292 294 295 297 297 295 293 292 290 290 290 290 288 288 286 284 282 277 274 273 273 273
247 252 254 254 270 283 279 275 275 277 278 282 291 295 296 295 293 292 291 291 290 290 290 292 292 292 293 294 295 296 298 297 296 296 293 291 291 291 291 291 290 288 287 284 279 276 275 275 274
251 258 260 259 259 271 282 281 282 288 288 291 295 296 296 295 294 294 293 292 292 292 292 292 291 292 294 295 296 297 297 297 296 298 296 294 294 293 292 293 291 290 289 288 285 280 276 276 276
253 257 260 261 260 260 270 278 284 289 290 294 295 295 296 295 295 295 293 293 293 292 293 293 291 292 294 296 297 300 297 297 298 297 296 296 296 296 295 295 295 292 292 291 289 285 282 279 277
Height
5895 5897 5899 5901 5904 5906 5907 5908 5909 5909 5908 5908 5907 5907 5906 5908 5909 5911 5909 5908 5909 5909 5908 5908 5908 5908 5908 5908 5908 5908 5908 5907 5907 5907 5907 5907 5907 5907 5907 5906 5906 5906 5905 5905 5905 5904 5904 5904 5903
5894 5896 5898 5900 5902 5904 5907 5906 5907 5908 5906 5906 5906 5907 5906 5907 5907 5907 5907 5907 5908 5907 5907 5907 5907 5907 5907 5907 5906 5906 5906 5906 5905 5905 5905 5905 5905 5905 5905 5905 5905 5904 5904 5904 5903 5903 5903 5903 5903
5892 5894 5896 5899 5900 5903 5906 5905 5906 5905 5904 5904 5905 5905 5905 5905 5905 5905 5906 5906 5906 5906 5906 5906 5905 5905 5905 5904 5904 5904 5904 5904 5904 5903 5903 5903 5903 5903 5903 5903 5903 5903 5902 5902 5902 5902 5902 5902 5901
5890 5893 5895 5898 5899 5902 5903 5903 5903 5902 5903 5903 5903 5903 5903 5903 5903 5904 5904 5904 5904 5904 5904 5903 5903 5903 5902 5902 5902 5902 5901 5901 5901 5901 5901 5901 5901 5901 5901 5901 5901 5901 5900 5900 5900 5900 5900 5900 5900
5888 5891 5893 5895 5898 5900 5901 5900 5900 5901 5900 5901 5901 5900 5900 5900 5901 5902 5902 5902 5902 5902 5902 5901 5901 5901 5900 5900 5899 5899 5899 5899 5898 5898 5898 5898 5898 5898 5898 5899 5898 5898 5898 5898 5898 5898 5898 5898 5898
5886 5889 5891 5894 5897 5898 5899 5898 5899 5899 5898 5897 5897 5897 5897 5898 5899 5900 5900 5900 5900 5900 5900 5899 5899 5898 5898 5897 5896 5896 5896 5896 5895 5895 5895 5896 5896 5896 5896 5896 5896 5896 5896 5896 5896 5896 5896 5896 5896
5884 5886 5889 5893 5896 5896 5896 5896 5897 5896 5895 5896 5894 5894 5895 5896 5897 5897 5897 5897 5897 5897 5897 5896 5895 5895 5894 5894 5893 5892 5892 5892 5892 5892 5892 5892 5893 5893 5893 5893 5893 5893 5893 5893 5893 5893 5893 5894 5894
5881 5884 5887 5891 5893 5894 5893 5894 5894 5894 5894 5894 5891 5892 5893 5894 5894 5894 5894 5894 5894 5893 5892 5892 5891 5891 5890 5890 5889 5889 5889 5889 5889 5889 5889 5889 5889 5889 5889 5889 5890 5890 5890 5890 5890 5890 5890 5891 5891
5879 5883 5886 5890 5892 5891 5890 5891 5891 5890 5890 5888 5888 5889 5891 5892 5892 5892 5892 5892 5891 5891 5890 5889 5888 5887 5886 5886 5885 5886 5886 5885 5885 5885 5885 5885 5885 5885 5885 5885 5886 5886 5887 5887 5887 5887 5887 5887 5887
5877 5880 5884 5886 5889 5888 5886 5888 5888 5887 5886 5886 5886 5888 5889 5889 5889 5889 5889 5889 5888 5888 5887 5886 5885 5883 5883 5882 5881 5881 5881 5881 5881 5881 5881 5881 5881 5882 5881 5882 5882 5882 5883 5883 5884 5884 5884 5884 5884
5874 5877 5879 5881 5882 5882 5882 5884 5885 5884 5884 5885 5884 5885 5886 5886 5886 5886 5886 5886 5885 5884 5883 5883 5882 5880 5880 5879 5878 5877 5877 5877 5877 5877 5877 5877 5877 5878 5878 5878 5878 5878 5879 5879 5880 5880 5880 5881 5881
5871 5873 5875 5877 5878 5879 5879 5881 5881 5881 5882 5882 5881 5882 5882 5882 5882 5883 5883 5883 5882 5881 5880 5879 5878 5877 5876 5875 5875 5874 5874 5874 5874 5874 5873 5873 5874 5874 5874 5874 5874 5874 5875 5875 5876 5876 5876 5877 5877
5868 5870 5871 5873 5875 5876 5876 5877 5878 5878 5879 5879 5878 5878 5877 5878 5879 5880 5879 5879 5878 5878 5877 5876 5875 5874 5873 5873 5872 5871 5870 5870 5870 5869 5869 5869 5869 5869 5870 5870 5869 5870 5870 5871 5871 5871 5872 5872 5873
5865 5867 5868 5869 5871 5872 5873 5873 5874 5875 5876 5876 5877 5876 5876 5876 5876 5876 5876 5875 5875 5874 5873 5873 5872 5871 5870 5869 5869 5868 5867 5866 5865 5865 5865 5865 5865 5865 5865 5865 5865 5865 5865 5866 5866 5866 5867 5867 5868
5862 5865 5866 5867 5868 5869 5870 5871 5871 5872 5873 5873 5874 5873 5872 5873 5873 5873 5872 5871 5871 5870 5870 5869 5868 5867 5867 5866 5865 5864 5863 5862 5861 5861 5861 5861 5861 5861 5860 5860 5859 5860 5860 5861 5861 5861 5862 5862 5862
5860 5862 5864 5865 5866 5866 5869 5869 5868 5868 5869 5869 5870 5870 5870 5870 5869 5868 5868 5867 5867 5866 5866 5865 5864 5863 5862 5861 5860 5860 5859 5858 5858 5857 5857 5856 5856 5856 5856 5856 5855 5855 5855 5855 5855 5856 5856 5856 5857
5859 5861 5863 5864 5864 5865 5866 5866 5864 5864 5866 5866 5867 5866 5866 5866 5865 5864 5864 5862 5862 5863 5862 5860 5860 5859 5858 5857 5856 5855 5854 5854 5853 5853 5852 5852 5851 5851 5850 5851 5850 5850 5850 5850 5850 5850 5850 5850 5850
5859 5861 5862 5862 5862 5863 5863 5862 5862 5862 5861 5863 5863 5863 5862 5862 5862 5861 5859 5858 5859 5859 5858 5856 5856 5855 5854 5852 5851 5851 5850 5849 5848 5848 5847 5846 5846 5845 5845 5845 5845 5844 5844 5844 5844 5844 5844 5844 5844
5859 5861 5862 5861 5861 5862 5861 5860 5859 5860 5859 5858 5859 5859 5859 5859 5858 5857 5856 5856 5855 5855 5854 5853 5852 5851 5849 5848 5847 5846 5845 5845 5844 5843 5842 5841 5840 5840 5839 5839 5838 5838 5838 5837 5837 5837 5837 5837 5837
5857 5859 5861 5861 5860 5860 5859 5857 5856 5856 5856 5855 5855 5855 5855 5855 5853 5852 5851 5852 5852 5851 5850 5849 5848 5847 5845 5844 5843 5841 5841 5840 5839 5838 5836 5835 5834 5833 5832 5832 5832 5831 5831 5830 5830 5830 5830 5830 5830
5855 5857 5858 5859 5858 5857 5858 5855 5854 5853 5852 5852 5851 5851 5851 5851 5849 5848 5848 5848 5848 5847 5846 5844 5843 5842 5840 5839 5838 5837 5835 5834 5833 5832 5830 5829 5828 5827 5826 5825 5824 5824 5824 5823 5823 5823 5823 5823 5823
5853 5855 5856 5857 5856 5855 5855 5853 5852 5849 5847 5847 5846 5846 5846 5846 5845 5844 5844 5844 5843 5842 5841 5839 5838 5836 5835 5834 5833 5831 5830 5829 5827 5826 5824 5823 5821 5820 5819 5818 5817 5816 5816 5815 5815 5814 5814 5815 5815
5851 5852 5853 5854 5854 5853 5851 5850 5849 5845 5843 5843 5843 5842 5841 5842 5841 5840 5839 5839 5838 5838 5836 5834 5833 5831 5830 5829 5827 5826 5824 5822 5820 5819 5817 5816 5814 5813 5811 5810 5809 5808 5807 5807 5806 5806 5806 5806 5807
5847 5849 5849 5850 5850 5850 5848 5847 5844 5842 5841 5839 5838 5838 5837 5837 5836 5835 5835 5834 5833 5832 5831 5829 5828 5826 5825 5823 5822 5820 5817 5815 5813 5812 5810 5808 5807 5805 5803 5801 5800 5800 5799 5798 5797 5797 5797 5798 5798
5845 5847 5847 5847 5846 5845 5845 5843 5840 5839 5838 5837 5835 5835 5833 5832 5832 5831 5830 5829 5828 5827 5826 5824 5823 5821 5820 5818 5816 5813 5811 5809 5806 5804 5802 5801 5799 5797 5795 5794 5793 5791 5790 5789 5788 5788 5788 5789 5789
5842 5844 5845 5843 5841 5840 5839 5837 5836 5835 5834 5833 5833 5832 5830 5829 5828 5827 5825 5824 5823 5822 5820 5819 5818 5816 5814 5812 5810 5807 5805 5802 5800 5797 5795 5794 5792 5790 5788 5786 5785 5784 5782 5781 5780 5780 5780 5781 5781
5839 5840 5840 5840 5838 5836 5835 5833 5832 5832 5831 5830 5829 5827 5826 5825 5825 5823 5822 5820 5819 5817 5815 5813 5812 5810 5808 5806 5803 5801 5798 5796 5793 5791 5789 5787 5785 5783 5781 5779 5778 5776 5774 5773 5772 5772 5772 5772 5773
5838 5837 5837 5836 5836 5834 5832 5829 5828 5827 5827 5826 5826 5824 5823 5822 5820 5819 5817 5816 5814 5812 5810 5808 5806 5804 5802 5800 5798 5795 5793 5790 5788 5785 5783 5781 5779 5777 5775 5773 5771 5769 5768 5766 5765 5765 5764 5765 5765
5835 5835 5834 5833 5833 5832 5830 5829 5825 5823 5823 5822 5822 5821 5819 5817 5816 5815 5813 5811 5808 5806 5804 5802 5801 5799 5797 5794 5792 5789 5787 5784 5782 5780 5778 5775 5773 5771 5769 5767 5765 5763 5761 5760 5758 5757 5757 5757 5757
5831 5832 5831 5831 5830 5829 5827 5827 5822 5821 5820 5819 5818 5817 5815 5813 5812 5810 5808 5805 5803 5801 5799 5797 5795 5793 5791 5789 5787 5784 5781 5779 5777 5774 5772 5770 5768 5766 5763 5761 5759 5757 5755 5754 5753 5752 5751 5750 5750